AAL1047 MKJS-KMIA

Flight info

Callsign AAL1047
Flight time 1h 21m
Altitude 34000
Route ALTIB UM779 ZEUSS VIICE2
Aircraft B77W/H-SDE1E2E3FGHIJ2J3J4J5M1RWXY/LB1D1

Departure

Time 2026-05-04 20:10
Airport Sangster International Airport (MKJS)

Arrival

Time 2026-05-04 21:32
Airport Miami International Airport (KMIA)
Time Latitude Longitude Altitude Speed Heading
2026-05-04 19:51 18.49997 -77.91369 15 ft 0 kts 185°
2026-05-04 20:01 18.50020 -77.91368 15 ft 4 kts 181°
2026-05-04 20:02 18.50047 -77.91367 15 ft 3 kts 180°
2026-05-04 20:02 18.50074 -77.91365 15 ft 3 kts 196°
2026-05-04 20:02 18.50094 -77.91356 15 ft 4 kts 218°
2026-05-04 20:02 18.50109 -77.91335 16 ft 3 kts 251°
2026-05-04 20:03 18.50114 -77.91321 15 ft 2 kts 244°
2026-05-04 20:05 18.50113 -77.91322 15 ft 0 kts 244°
2026-05-04 20:05 18.50093 -77.91366 15 ft 12 kts 245°
2026-05-04 20:06 18.50058 -77.91449 15 ft 12 kts 245°
2026-05-04 20:06 18.50024 -77.91528 15 ft 6 kts 246°
2026-05-04 20:06 18.50030 -77.91571 15 ft 7 kts 312°
2026-05-04 20:06 18.50055 -77.91624 15 ft 9 kts 265°
2026-05-04 20:07 18.50026 -77.91703 16 ft 14 kts 245°
2026-05-04 20:07 18.49979 -77.91814 16 ft 18 kts 245°
2026-05-04 20:07 18.49928 -77.91931 16 ft 18 kts 246°
2026-05-04 20:07 18.49876 -77.92048 16 ft 18 kts 245°
2026-05-04 20:08 18.49827 -77.92165 16 ft 18 kts 245°
2026-05-04 20:08 18.49775 -77.92282 15 ft 18 kts 245°
2026-05-04 20:08 18.49737 -77.92370 15 ft 13 kts 255°
2026-05-04 20:08 18.49782 -77.92423 15 ft 11 kts 336°
2026-05-04 20:09 18.49846 -77.92449 15 ft 5 kts 340°
2026-05-04 20:09 18.49885 -77.92438 16 ft 9 kts 44°
2026-05-04 20:09 18.49904 -77.92401 16 ft 1 kts 66°
2026-05-04 20:09 18.49971 -77.92241 18 ft 62 kts 64°
2026-05-04 20:10 18.50269 -77.91559 18 ft 141 kts 65°
2026-05-04 20:10 18.50760 -77.90453 208 ft 182 kts 65°
2026-05-04 20:10 18.51336 -77.89226 983 ft 188 kts 59°
2026-05-04 20:10 18.52252 -77.88206 1458 ft 206 kts 33°
2026-05-04 20:11 18.53657 -77.87510 1739 ft 233 kts 18°
2026-05-04 20:11 18.55269 -77.87300 2632 ft 233 kts
2026-05-04 20:11 18.56841 -77.87533 3472 ft 235 kts 345°
2026-05-04 20:11 18.58381 -77.88153 4207 ft 238 kts 341°
2026-05-04 20:12 18.59920 -77.88796 4983 ft 240 kts 337°
2026-05-04 20:12 18.61479 -77.89536 5622 ft 252 kts 336°
2026-05-04 20:12 18.63127 -77.90315 6192 ft 267 kts 337°
2026-05-04 20:12 18.64936 -77.90919 6746 ft 278 kts 353°
2026-05-04 20:13 18.66813 -77.91185 7778 ft 266 kts 355°
2026-05-04 20:13 18.68631 -77.91366 8780 ft 262 kts 355°
2026-05-04 20:13 18.70509 -77.91605 9214 ft 282 kts 354°
2026-05-04 20:13 18.72488 -77.91891 9839 ft 292 kts 353°
2026-05-04 20:14 18.74545 -77.92202 10451 ft 305 kts 352°
2026-05-04 20:14 18.76738 -77.92537 10654 ft 333 kts 352°
2026-05-04 20:14 18.79126 -77.92905 10878 ft 359 kts 352°
2026-05-04 20:14 18.81642 -77.93296 11498 ft 372 kts 352°
2026-05-04 20:15 18.84232 -77.93700 12306 ft 380 kts 352°
2026-05-04 20:15 18.86836 -77.94106 13237 ft 386 kts 352°
2026-05-04 20:15 18.89511 -77.94522 14110 ft 392 kts 351°
2026-05-04 20:15 18.92228 -77.94946 14979 ft 397 kts 351°
2026-05-04 20:16 18.94978 -77.95374 15881 ft 401 kts 350°
2026-05-04 20:16 18.97742 -77.95803 16820 ft 403 kts 350°
2026-05-04 20:16 19.00535 -77.96238 17693 ft 407 kts 350°
2026-05-04 20:16 19.03352 -77.96678 18504 ft 412 kts 350°
2026-05-04 20:17 19.06205 -77.97123 19298 ft 417 kts 350°
2026-05-04 20:17 19.09087 -77.97573 20099 ft 420 kts 350°
2026-05-04 20:17 19.11991 -77.98026 20876 ft 424 kts 350°
2026-05-04 20:17 19.14921 -77.98484 21614 ft 428 kts 350°
2026-05-04 20:18 19.17880 -77.98945 22312 ft 431 kts 350°
2026-05-04 20:18 19.20863 -77.99410 22990 ft 435 kts 350°
2026-05-04 20:18 19.23866 -77.99878 23631 ft 439 kts 350°
2026-05-04 20:18 19.26902 -78.00352 24272 ft 442 kts 350°
2026-05-04 20:19 19.29951 -78.00828 24871 ft 446 kts 350°
2026-05-04 20:19 19.33045 -78.01313 25343 ft 452 kts 349°
2026-05-04 20:19 19.36177 -78.01803 25813 ft 458 kts 349°
2026-05-04 20:19 19.39351 -78.02298 26340 ft 462 kts 349°
2026-05-04 20:20 19.42540 -78.02796 26847 ft 466 kts 349°
2026-05-04 20:20 19.45767 -78.03301 27317 ft 471 kts 349°
2026-05-04 20:20 19.49024 -78.03812 27748 ft 476 kts 348°
2026-05-04 20:20 19.52323 -78.04329 28177 ft 481 kts 348°
2026-05-04 20:21 19.55642 -78.04850 28613 ft 485 kts 348°
2026-05-04 20:21 19.58953 -78.05369 29043 ft 489 kts 348°
2026-05-04 20:21 19.65734 -78.06432 29870 ft 496 kts 348°
2026-05-04 20:22 19.69149 -78.06967 30405 ft 496 kts 348°
2026-05-04 20:22 19.72553 -78.07499 31024 ft 493 kts 347°
2026-05-04 20:22 19.75943 -78.08029 31667 ft 491 kts 347°
2026-05-04 20:22 19.79304 -78.08556 32347 ft 487 kts 347°
2026-05-04 20:23 19.82644 -78.09080 32998 ft 484 kts 347°
2026-05-04 20:23 19.84890 -78.09433 33393 ft 482 kts 347°
2026-05-04 20:23 19.88191 -78.09952 33924 ft 480 kts 346°
2026-05-04 20:23 19.91503 -78.10475 33982 ft 481 kts 346°
2026-05-04 20:24 19.98070 -78.11513 33991 ft 479 kts 346°
2026-05-04 20:24 20.04664 -78.12553 33992 ft 479 kts 346°
2026-05-04 20:25 20.11257 -78.13592 33997 ft 479 kts 346°
2026-05-04 20:25 20.17848 -78.14633 34003 ft 479 kts 346°
2026-05-04 20:26 20.24448 -78.15677 34000 ft 479 kts 346°
2026-05-04 20:26 20.31050 -78.16718 34000 ft 480 kts 346°
2026-05-04 20:27 20.37650 -78.17766 33998 ft 480 kts 346°
2026-05-04 20:27 20.44249 -78.18811 34001 ft 480 kts 346°
2026-05-04 20:28 20.50853 -78.19858 34000 ft 480 kts 346°
2026-05-04 20:28 20.57458 -78.20906 33996 ft 479 kts 346°
2026-05-04 20:29 20.64052 -78.21953 33999 ft 479 kts 346°
2026-05-04 20:29 20.70655 -78.23003 34001 ft 480 kts 346°
2026-05-04 20:30 20.77258 -78.24055 34000 ft 480 kts 346°
2026-05-04 20:30 20.83874 -78.25108 34001 ft 481 kts 346°
2026-05-04 20:31 20.90491 -78.26164 34003 ft 481 kts 346°
2026-05-04 20:31 20.97110 -78.27219 34001 ft 481 kts 346°
2026-05-04 20:32 21.03741 -78.28279 34000 ft 482 kts 346°
2026-05-04 20:32 21.10366 -78.29337 34001 ft 482 kts 346°
2026-05-04 20:33 21.16998 -78.30397 33998 ft 482 kts 345°
2026-05-04 20:33 21.23582 -78.31452 34001 ft 482 kts 345°
2026-05-04 20:34 21.30213 -78.32516 34000 ft 482 kts 345°
2026-05-04 20:34 21.36847 -78.33580 34000 ft 482 kts 345°
2026-05-04 20:35 21.43485 -78.34648 34001 ft 483 kts 345°
2026-05-04 20:35 21.50129 -78.35714 34000 ft 483 kts 345°
2026-05-04 20:36 21.56774 -78.36782 34000 ft 483 kts 345°
2026-05-04 20:36 21.63419 -78.37852 34003 ft 483 kts 345°
2026-05-04 20:37 21.70073 -78.38926 33998 ft 484 kts 345°
2026-05-04 20:37 21.76725 -78.39998 34000 ft 484 kts 345°
2026-05-04 20:38 21.83384 -78.41073 33999 ft 484 kts 345°
2026-05-04 20:38 21.90037 -78.42149 34000 ft 483 kts 345°
2026-05-04 20:39 21.96689 -78.43225 34000 ft 484 kts 345°
2026-05-04 20:39 22.03344 -78.44303 33999 ft 483 kts 345°
2026-05-04 20:40 22.09995 -78.45381 34001 ft 483 kts 345°
2026-05-04 20:40 22.16642 -78.46459 34002 ft 483 kts 345°
2026-05-04 20:41 22.23292 -78.47538 34002 ft 484 kts 345°
2026-05-04 20:41 22.29947 -78.48621 34006 ft 483 kts 345°
2026-05-04 20:42 22.36596 -78.49703 34012 ft 483 kts 345°
2026-05-04 20:42 22.43249 -78.50786 34010 ft 483 kts 345°
2026-05-04 20:43 22.49841 -78.51861 34009 ft 483 kts 345°
2026-05-04 20:43 22.56487 -78.52946 34004 ft 482 kts 345°
2026-05-04 20:44 22.63123 -78.54029 34012 ft 482 kts 345°
2026-05-04 20:44 22.69750 -78.55114 34008 ft 482 kts 345°
2026-05-04 20:45 22.76377 -78.56199 34009 ft 482 kts 345°
2026-05-04 20:45 22.82984 -78.57356 34008 ft 480 kts 343°
2026-05-04 20:46 22.89567 -78.58615 34013 ft 480 kts 343°
2026-05-04 20:46 22.96137 -78.59876 34013 ft 480 kts 343°
2026-05-04 20:47 23.02720 -78.61125 34025 ft 480 kts 343°
2026-05-04 20:47 23.09304 -78.62366 34013 ft 480 kts 343°
2026-05-04 20:48 23.15890 -78.63609 34019 ft 480 kts 343°
2026-05-04 20:48 23.22472 -78.64851 34014 ft 480 kts 343°
2026-05-04 20:49 23.29052 -78.66097 34015 ft 481 kts 343°
2026-05-04 20:49 23.35642 -78.67345 34016 ft 480 kts 343°
2026-05-04 20:50 23.42219 -78.68592 34024 ft 480 kts 343°
2026-05-04 20:50 23.48759 -78.69831 34013 ft 480 kts 343°
2026-05-04 20:51 23.55334 -78.71079 34013 ft 479 kts 343°
2026-05-04 20:51 23.61912 -78.72329 34019 ft 479 kts 343°
2026-05-04 20:52 23.68480 -78.73581 34018 ft 479 kts 343°
2026-05-04 20:52 23.75054 -78.74833 34015 ft 479 kts 343°
2026-05-04 20:53 23.81623 -78.76086 34023 ft 479 kts 343°
2026-05-04 20:53 23.88192 -78.77340 34012 ft 479 kts 343°
2026-05-04 20:54 23.94763 -78.78597 34021 ft 479 kts 343°
2026-05-04 20:54 24.01200 -78.80187 34005 ft 464 kts 327°
2026-05-04 20:55 24.03941 -78.81914 34031 ft 452 kts 321°
2026-05-04 20:55 24.06593 -78.83764 34017 ft 453 kts 320°
2026-05-04 20:55 24.11937 -78.87441 34018 ft 455 kts 321°
2026-05-04 20:56 24.17348 -78.91064 34020 ft 456 kts 322°
2026-05-04 20:56 24.22784 -78.94661 34015 ft 457 kts 322°
2026-05-04 20:57 24.28189 -78.98237 34020 ft 457 kts 322°
2026-05-04 20:57 24.33621 -79.01838 34015 ft 455 kts 322°
2026-05-04 20:58 24.39034 -79.05433 34019 ft 454 kts 322°
2026-05-04 20:58 24.44429 -79.09020 34018 ft 450 kts 322°
2026-05-04 20:59 24.47068 -79.10770 34003 ft 436 kts 322°
2026-05-04 20:59 24.49620 -79.12463 33948 ft 424 kts 321°
2026-05-04 20:59 24.52128 -79.14132 33552 ft 419 kts 321°
2026-05-04 20:59 24.54615 -79.15791 33077 ft 417 kts 322°
2026-05-04 21:00 24.57094 -79.17446 32607 ft 414 kts 322°
2026-05-04 21:00 24.59547 -79.19084 32139 ft 411 kts 322°
2026-05-04 21:00 24.61981 -79.20710 31655 ft 409 kts 322°
2026-05-04 21:00 24.64401 -79.22329 31187 ft 406 kts 322°
2026-05-04 21:01 24.66805 -79.23935 30708 ft 403 kts 323°
2026-05-04 21:01 24.69191 -79.25529 30233 ft 400 kts 323°
2026-05-04 21:01 24.71559 -79.27112 29769 ft 397 kts 323°
2026-05-04 21:01 24.73916 -79.28690 29286 ft 395 kts 323°
2026-05-04 21:02 24.76253 -79.30255 28805 ft 392 kts 323°
2026-05-04 21:02 24.78576 -79.31811 28330 ft 390 kts 323°
2026-05-04 21:02 24.80890 -79.33362 27855 ft 389 kts 323°
2026-05-04 21:02 24.83194 -79.34906 27388 ft 387 kts 323°
2026-05-04 21:03 24.85491 -79.36446 26922 ft 386 kts 323°
2026-05-04 21:03 24.87787 -79.37986 26455 ft 386 kts 323°
2026-05-04 21:03 24.90074 -79.39522 25993 ft 385 kts 323°
2026-05-04 21:03 24.92357 -79.41054 25523 ft 385 kts 323°
2026-05-04 21:04 24.94612 -79.42569 25068 ft 384 kts 323°
2026-05-04 21:04 24.96892 -79.44101 24611 ft 384 kts 323°
2026-05-04 21:04 24.99168 -79.45631 24146 ft 383 kts 323°
2026-05-04 21:04 25.01445 -79.47162 23684 ft 383 kts 323°
2026-05-04 21:05 25.03722 -79.48695 23218 ft 383 kts 323°
2026-05-04 21:05 25.05987 -79.50219 22755 ft 380 kts 323°
2026-05-04 21:05 25.08248 -79.51745 22289 ft 380 kts 323°
2026-05-04 21:05 25.10506 -79.53262 21830 ft 380 kts 323°
2026-05-04 21:06 25.12764 -79.54781 21371 ft 377 kts 323°
2026-05-04 21:06 25.15002 -79.56288 20912 ft 377 kts 323°
2026-05-04 21:06 25.17244 -79.57799 20454 ft 377 kts 323°
2026-05-04 21:06 25.19475 -79.59307 19995 ft 376 kts 323°
2026-05-04 21:07 25.21707 -79.60817 19543 ft 376 kts 323°
2026-05-04 21:07 25.23937 -79.62325 19057 ft 376 kts 323°
2026-05-04 21:07 25.26163 -79.63829 18606 ft 375 kts 323°
2026-05-04 21:07 25.28390 -79.65334 18146 ft 375 kts 323°
2026-05-04 21:08 25.30609 -79.66836 17754 ft 372 kts 323°
2026-05-04 21:08 25.32819 -79.68331 17336 ft 370 kts 323°
2026-05-04 21:08 25.34976 -79.69786 16956 ft 353 kts 323°
2026-05-04 21:08 25.37089 -79.71217 16299 ft 357 kts 323°
2026-05-04 21:09 25.39078 -79.72788 15807 ft 345 kts 310°
2026-05-04 21:09 25.40518 -79.74823 15458 ft 331 kts 300°
2026-05-04 21:09 25.41367 -79.76215 15229 ft 328 kts 300°
2026-05-04 21:09 25.42653 -79.78281 14865 ft 324 kts 301°
2026-05-04 21:10 25.43937 -79.80310 14528 ft 321 kts 301°
2026-05-04 21:10 25.45206 -79.82295 14169 ft 308 kts 301°
2026-05-04 21:10 25.46438 -79.84218 13863 ft 306 kts 301°
2026-05-04 21:10 25.47662 -79.86128 13541 ft 303 kts 301°
2026-05-04 21:11 25.48874 -79.88021 13232 ft 300 kts 301°
2026-05-04 21:11 25.50077 -79.89898 12913 ft 298 kts 301°
2026-05-04 21:11 25.51272 -79.91763 12599 ft 296 kts 301°
2026-05-04 21:11 25.52457 -79.93615 12287 ft 294 kts 301°
2026-05-04 21:12 25.53639 -79.95456 11991 ft 293 kts 301°
2026-05-04 21:12 25.54815 -79.97302 11667 ft 294 kts 301°
2026-05-04 21:12 25.55998 -79.99154 11369 ft 293 kts 302°
2026-05-04 21:12 25.57180 -80.01005 11050 ft 295 kts 302°
2026-05-04 21:13 25.58357 -80.02864 10730 ft 294 kts 302°
2026-05-04 21:13 25.59531 -80.04703 10431 ft 293 kts 301°
2026-05-04 21:13 25.60684 -80.06532 10092 ft 282 kts 303°
2026-05-04 21:13 25.61815 -80.08286 9816 ft 278 kts 303°
2026-05-04 21:14 25.62919 -80.10004 9515 ft 276 kts 303°
2026-05-04 21:14 25.64023 -80.11731 9231 ft 274 kts 303°
2026-05-04 21:14 25.65121 -80.13450 8943 ft 272 kts 303°
2026-05-04 21:14 25.66084 -80.15227 8684 ft 267 kts 295°
2026-05-04 21:15 25.66854 -80.17088 8458 ft 264 kts 293°
2026-05-04 21:15 25.67611 -80.18959 8198 ft 267 kts 294°
2026-05-04 21:15 25.68392 -80.20850 7982 ft 271 kts 294°
2026-05-04 21:15 25.69195 -80.22756 7702 ft 275 kts 294°
2026-05-04 21:16 25.69997 -80.24674 7415 ft 275 kts 294°
2026-05-04 21:16 25.70798 -80.26589 7143 ft 271 kts 293°
2026-05-04 21:16 25.71260 -80.28562 6846 ft 263 kts 269°
2026-05-04 21:16 25.71132 -80.30547 6678 ft 258 kts 266°
2026-05-04 21:17 25.71018 -80.32598 6444 ft 273 kts 266°
2026-05-04 21:17 25.70911 -80.34710 6164 ft 275 kts 266°
2026-05-04 21:17 25.70813 -80.36809 5873 ft 270 kts 267°
2026-05-04 21:17 25.70725 -80.38881 5608 ft 268 kts 267°
2026-05-04 21:18 25.70630 -80.40931 5320 ft 265 kts 266°
2026-05-04 21:18 25.70533 -80.42963 5080 ft 261 kts 266°
2026-05-04 21:18 25.70416 -80.44937 5021 ft 255 kts 264°
2026-05-04 21:18 25.70287 -80.46927 4979 ft 262 kts 272°
2026-05-04 21:19 25.70792 -80.48877 4992 ft 269 kts 302°
2026-05-04 21:19 25.72087 -80.50354 4983 ft 268 kts 330°
2026-05-04 21:19 25.73821 -80.50970 4970 ft 259 kts 359°
2026-05-04 21:19 25.75538 -80.50719 4979 ft 241 kts 15°
2026-05-04 21:20 25.77038 -80.50091 4949 ft 222 kts 36°
2026-05-04 21:20 25.78137 -80.49013 4832 ft 207 kts 48°
2026-05-04 21:20 25.78810 -80.47691 4647 ft 192 kts 76°
2026-05-04 21:20 25.78910 -80.46269 4388 ft 183 kts 102°
2026-05-04 21:21 25.78440 -80.44973 4038 ft 179 kts 108°
2026-05-04 21:21 25.78269 -80.43645 3604 ft 171 kts 89°
2026-05-04 21:21 25.78220 -80.42414 3602 ft 150 kts 89°
2026-05-04 21:21 25.78221 -80.41278 3568 ft 146 kts 86°
2026-05-04 21:22 25.78257 -80.40153 3625 ft 144 kts 85°
2026-05-04 21:22 25.78299 -80.39044 3614 ft 144 kts 85°
2026-05-04 21:22 25.78346 -80.37934 3616 ft 144 kts 85°
2026-05-04 21:22 25.78382 -80.36826 3607 ft 143 kts 91°
2026-05-04 21:23 25.77921 -80.35840 3574 ft 154 kts 138°
2026-05-04 21:23 25.76834 -80.35510 3578 ft 177 kts 182°
2026-05-04 21:23 25.75722 -80.36051 3535 ft 177 kts 214°
2026-05-04 21:23 25.74657 -80.36917 3620 ft 201 kts 219°
2026-05-04 21:24 25.73706 -80.38084 3598 ft 207 kts 233°
2026-05-04 21:24 25.72927 -80.39426 3579 ft 207 kts 246°
2026-05-04 21:24 25.72635 -80.40968 3576 ft 204 kts 268°
2026-05-04 21:24 25.72545 -80.42555 3605 ft 209 kts 268°
2026-05-04 21:25 25.72444 -80.44174 3615 ft 211 kts 268°
2026-05-04 21:25 25.72348 -80.45790 3610 ft 208 kts 267°
2026-05-04 21:25 25.72248 -80.47355 3592 ft 205 kts 268°
2026-05-04 21:25 25.72239 -80.48950 3417 ft 205 kts 285°
2026-05-04 21:26 25.72913 -80.50290 3088 ft 196 kts 325°
2026-05-04 21:26 25.74100 -80.50813 3017 ft 182 kts
2026-05-04 21:26 25.75339 -80.50644 3008 ft 181 kts 13°
2026-05-04 21:26 25.76510 -80.50170 2980 ft 179 kts 37°
2026-05-04 21:27 25.77276 -80.49159 2967 ft 170 kts 70°
2026-05-04 21:27 25.77568 -80.47901 2956 ft 172 kts 76°
2026-05-04 21:27 25.77785 -80.46594 2739 ft 167 kts 78°
2026-05-04 21:27 25.77965 -80.45346 2536 ft 161 kts 81°
2026-05-04 21:28 25.78069 -80.44157 2316 ft 148 kts 84°
2026-05-04 21:28 25.78128 -80.43047 2147 ft 143 kts 84°
2026-05-04 21:28 25.78178 -80.41952 1935 ft 140 kts 85°
2026-05-04 21:28 25.78224 -80.40862 1752 ft 142 kts 86°
2026-05-04 21:29 25.78270 -80.39765 1559 ft 141 kts 85°
2026-05-04 21:29 25.78315 -80.38688 1372 ft 138 kts 86°
2026-05-04 21:29 25.78359 -80.37621 1186 ft 138 kts 86°
2026-05-04 21:29 25.78404 -80.36549 1013 ft 140 kts 86°
2026-05-04 21:30 25.78449 -80.35462 823 ft 141 kts 86°
2026-05-04 21:30 25.78493 -80.34392 633 ft 140 kts 86°
2026-05-04 21:30 25.78545 -80.33288 397 ft 143 kts 86°
2026-05-04 21:30 25.78577 -80.32209 239 ft 141 kts 87°
2026-05-04 21:31 25.78672 -80.30068 22 ft 130 kts 86°
2026-05-04 21:31 25.78707 -80.29201 28 ft 95 kts 86°
2026-05-04 21:31 25.78735 -80.28649 24 ft 53 kts 85°
2026-05-04 21:32 25.78826 -80.28423 27 ft 24 kts 50°
2026-05-04 21:32 25.78896 -80.28326 23 ft 11 kts 50°
2026-05-04 21:32 25.78947 -80.28260 25 ft 12 kts 50°
2026-05-04 21:32 25.78999 -80.28190 29 ft 12 kts 51°
2026-05-04 21:33 25.79056 -80.28166 27 ft 10 kts 328°
2026-05-04 21:33 25.79094 -80.28228 28 ft 10 kts 301°
2026-05-04 21:33 25.79136 -80.28297 27 ft 12 kts 301°
2026-05-04 21:33 25.79187 -80.28379 24 ft 14 kts 318°
2026-05-04 21:34 25.79251 -80.28468 23 ft 15 kts 304°
2026-05-04 21:34 25.79303 -80.28572 23 ft 16 kts 299°
2026-05-04 21:34 25.79362 -80.28688 19 ft 18 kts 300°
2026-05-04 21:34 25.79432 -80.28797 20 ft 15 kts 330°
2026-05-04 21:35 25.79539 -80.28803 28 ft 15 kts 359°
2026-05-04 21:35 25.79646 -80.28808 25 ft 15 kts 357°
2026-05-04 21:35 25.79754 -80.28814 27 ft 15 kts 357°
2026-05-04 21:35 25.79861 -80.28819 28 ft 15 kts 357°
2026-05-04 21:36 25.79917 -80.28822 27 ft 0 kts 358°
2026-05-04 21:36 25.79932 -80.28804 27 ft 4 kts 78°
2026-05-04 21:37 25.79935 -80.28771 27 ft 5 kts 85°
2026-05-04 21:37 25.79938 -80.28729 27 ft 6 kts 85°
2026-05-04 21:37 25.79941 -80.28678 28 ft 7 kts 87°
2026-05-04 21:37 25.79943 -80.28616 25 ft 9 kts 89°
2026-05-04 21:38 25.79942 -80.28533 24 ft 12 kts 91°
2026-05-04 21:38 25.79937 -80.28431 22 ft 14 kts 94°
2026-05-04 21:38 25.79916 -80.28333 22 ft 11 kts 119°
2026-05-04 21:38 25.79889 -80.28263 19 ft 9 kts 98°
2026-05-04 21:39 25.79890 -80.28192 19 ft 10 kts 81°
2026-05-04 21:39 25.79897 -80.28116 19 ft 9 kts 88°
2026-05-04 21:39 25.79897 -80.28045 19 ft 9 kts 96°
2026-05-04 21:39 25.79883 -80.27993 19 ft 0 kts 114°
2026-05-04 21:40 25.79872 -80.27985 19 ft 3 kts 155°
2026-05-04 21:40 25.79855 -80.27990 20 ft 3 kts 204°
2026-05-04 21:40 25.79838 -80.28001 20 ft 3 kts 216°
2026-05-04 21:41 25.79821 -80.28014 21 ft 3 kts 215°
2026-05-04 21:41 25.79805 -80.28026 24 ft 3 kts 214°
2026-05-04 21:41 25.79787 -80.28040 23 ft 3 kts 214°
2026-05-04 21:41 25.79778 -80.28047 21 ft 1 kts 214°
2026-05-04 21:42 25.79775 -80.28049 22 ft 0 kts 214°
2026-05-04 21:59 25.79775 -80.28048 21 ft 0 kts 214°
2026-05-04 22:05 25.79776 -80.28048 26 ft 0 kts 214°